Change the Weather History Date:

Sunday, May 26, 2013

  Actual Average Record
Temperature  
Mean Temperature 80 °F 77 °F  
Max Temperature 87 °F 87 °F 96 °F (2010)
Min Temperature 72 °F 66 °F 51 °F (1979)
Degree Days  
Heating Degree Days 0 0  
Month to date heating degree days 25 1  
Since 1 July heating degree days 1615 1914  
Cooling Degree Days 15 12  
Month to date cooling degree days 229 230  
Year to date cooling degree days 430 406  
Growing Degree Days 29 (Base 50)    
Moisture  
Dew Point 71 °F    
Average Humidity 77    
Maximum Humidity 93    
Minimum Humidity 61    
Precipitation  
Precipitation 0.07 in 0.16 in 2.02 in (1909)
Month to date precipitation 3.85 3.81  
Year to date precipitation 15.43 18.69  
Snow  
Snow 0.00 in - - ()
Month to date snowfall 0.0  
Since 1 July snowfall 0.0  
Snow Depth 0.00 in    
Sea Level Pressure  
Sea Level Pressure 30.08 in    
Wind  
Wind Speed 5 mph (SE)    
Max Wind Speed 13 mph    
Max Gust Speed -    
Visibility 8 miles    
Events Rain    
T = Trace of Precipitation, MM = Missing Value Source: NWS Daily Summary

Daily Weather History Graph

Daily Weather History Graph

Search for Another Location

Airport or City:

Trip Planner

Search our weather history database for the weather conditions in past years. The results will help you decide how hot, cold, wet, or windy it might be!

Date:

Astronomy

May. 26, 2013 Rise Set
Actual Time 6:17 AM CDT 8:15 PM CDT
Civil Twilight 5:50 AM CDT 8:42 PM CDT
Nautical Twilight 5:17 AM CDT 9:15 PM CDT
Astronomical Twilight 4:42 AM CDT 9:50 PM CDT
Moon 10:05 PM CDT (5/26) 7:46 AM CDT (5/26)
Length of Visible Light 14h 52m
Length of Day
13h 57m
Waning Gibbous, 96% of the Moon is Illuminated
May 26
Waning Gibbous
May 31
Last Quarter
Jun 8
New
Jun 16
First Quarter
Jun 23
Full

Hourly Weather History & Observations

Time (CDT) Temp. Heat Index Dew Point Humidity Pressure Visibility Wind Dir Wind Speed Gust Speed Precip Events Conditions
12:53 AM 73.0 °F - 70.0 °F 90% 30.10 in 8.0 mi South 4.6 mph - N/A   Clear
1:53 AM 73.0 °F - 70.0 °F 90% 30.09 in 7.0 mi SE 3.5 mph - N/A   Clear
2:31 AM 73.4 °F - 69.8 °F 88% 30.09 in 6.0 mi SE 4.6 mph - N/A   Scattered Clouds
2:53 AM 72.0 °F - 70.0 °F 93% 30.09 in 5.0 mi SE 4.6 mph - N/A   Mostly Cloudy
3:48 AM 73.4 °F - 69.8 °F 88% 30.10 in 6.0 mi SE 3.5 mph - N/A   Mostly Cloudy
3:53 AM 73.0 °F - 70.0 °F 90% 30.09 in 6.0 mi SE 3.5 mph - N/A   Overcast
4:03 AM 73.4 °F - 69.8 °F 88% 30.10 in 6.0 mi SE 4.6 mph - N/A   Overcast
4:53 AM 73.0 °F - 70.0 °F 90% 30.07 in 5.0 mi SE 6.9 mph - N/A   Overcast
5:29 AM 73.4 °F - 69.8 °F 88% 30.09 in 6.0 mi SSE 6.9 mph - N/A   Mostly Cloudy
5:53 AM 73.0 °F - 70.0 °F 90% 30.09 in 5.0 mi SSE 3.5 mph - 0.01 in Rain Light Rain
6:53 AM 73.0 °F - 70.0 °F 90% 30.10 in 4.0 mi ESE 4.6 mph - 0.02 in Rain Light Rain
7:53 AM 73.0 °F - 71.1 °F 93% 30.12 in 4.0 mi Calm Calm - 0.01 in Rain Light Rain
8:53 AM 73.9 °F - 71.1 °F 91% 30.12 in 6.0 mi ESE 5.8 mph - 0.03 in   Scattered Clouds
9:32 AM 75.2 °F - 71.6 °F 89% 30.13 in 6.0 mi SSE 3.5 mph - N/A   Partly Cloudy
9:53 AM 75.0 °F - 72.0 °F 90% 30.12 in 6.0 mi SSE 3.5 mph - N/A   Scattered Clouds
10:00 AM 75.2 °F - 71.6 °F 89% 30.13 in 6.0 mi SE 4.6 mph - N/A   Mostly Cloudy
10:53 AM 75.9 °F - 72.0 °F 87% 30.12 in 7.0 mi Calm Calm - N/A   Scattered Clouds
11:53 AM 77.0 °F - 72.0 °F 84% 30.12 in 8.0 mi SSE 4.6 mph - N/A   Scattered Clouds
12:53 PM 79.0 °F - 73.0 °F 82% 30.11 in 10.0 mi ESE 5.8 mph - N/A   Clear
1:53 PM 81.0 °F 85.8 °F 73.0 °F 77% 30.10 in 10.0 mi ESE 6.9 mph - N/A   Clear
2:53 PM 84.0 °F 89.6 °F 72.0 °F 67% 30.08 in 10.0 mi SE 9.2 mph - N/A   Scattered Clouds
3:53 PM 86.0 °F 92.2 °F 72.0 °F 63% 30.05 in 10.0 mi SE 9.2 mph - N/A   Mostly Cloudy
4:53 PM 80.1 °F 83.8 °F 72.0 °F 76% 30.04 in 10.0 mi WSW 3.5 mph - 0.00 in   Mostly Cloudy
5:53 PM 86.0 °F 91.5 °F 71.1 °F 61% 30.01 in 10.0 mi ESE 12.7 mph - 0.00 in   Clear
6:53 PM 82.9 °F 87.5 °F 71.1 °F 67% 30.00 in 10.0 mi ESE 9.2 mph - N/A   Clear
7:53 PM 80.1 °F 83.8 °F 72.0 °F 76% 30.01 in 10.0 mi SE 6.9 mph - N/A   Clear
8:53 PM 78.1 °F - 70.0 °F 76% 30.02 in 10.0 mi SSE 5.8 mph - N/A   Clear
9:53 PM 75.9 °F - 69.1 °F 79% 30.04 in 10.0 mi SSE 6.9 mph - N/A   Clear
10:53 PM 75.0 °F - 69.1 °F 82% 30.05 in 10.0 mi SSE 3.5 mph - N/A   Clear
11:53 PM 73.0 °F - 69.1 °F 87% 30.06 in 10.0 mi SE 3.5 mph - N/A   Clear